Home > Weather > Kaohsiung > Past weeks

Flag for Taiwan Weather for the Past 2 Weeks in Kaohsiung, Taiwan

Now
61 °F

Passing clouds.


Feels Like: 61 °F
Forecast: 49 / 71 °F
Wind: 10 mph from Northeast

Location: Kaohsiung International Airport

Current Time: Feb 8, 2016 at 10:08:25 AM

Latest Report: Feb 8, 2016 at 9:00 AM


Visibility: N/A

Pressure: 30.24 "Hg

Humidity: 29%

Dew point: 28 °F

Location of KaohsiungLocation

Historic Weather in Kaohsiung — Graph

°F

Kaohsiung Temperature Yesterday

Maximum temperature yesterday: 70 °F (at 2:30 PM)
Minimum temperature yesterday: 48 °F (at 6:30 AM)
Average temperature yesterday: 59 °F

High & Low Weather Summary for the Past Weeks

 TemperatureHumidityPressure
High77 °F (Jan 28, 1:30 PM)100% (Jan 29, 4:00 AM)30.45 "Hg (Jan 29, 4:00 AM)
Low43 °F (Jan 24, 1:00 PM)44% (Jan 26, 1:00 PM)29.92 "Hg (Feb 5, 3:00 PM)
Average62 °F77%30.15 "Hg
* Reported Jan 24 8:00 AM — Feb 8 8:30 AM, Kaohsiung, Weather by CustomWeather, © 2016

Note: Actual official high and low records may vary slightly from our data, if they occured in-between our weather recording intervals... More about our weather records

Advertising

Kaohsiung Weather History for the Previous 24 Hours

 ConditionsComfort  
Time TempWeatherWind HumidityBarometerVisibility
8:30 AM
Mon, Feb 8
59 °FClear.9 mph48%30.24 "Hg5 mi
7:30 AM54 °FClear.3 mph72%30.24 "Hg4 mi
7:00 AM52 °FPassing clouds.3 mph72%30.24 "Hg5 mi
6:30 AM52 °FPassing clouds.5 mph67%30.21 "HgN/A
6:00 AM54 °FPassing clouds.6 mph51%30.21 "HgN/A
5:00 AM55 °FPassing clouds.6 mph59%30.21 "Hg5 mi
4:00 AM54 °FPassing clouds.3 mph72%30.21 "Hg4 mi
3:00 AM52 °FPassing clouds.3 mph77%30.21 "Hg4 mi
2:00 AM54 °FPassing clouds.5 mph67%30.21 "Hg4 mi
1:00 AM54 °FPassing clouds.2 mph67%30.24 "Hg6 mi
12:00 AM55 °FPassing clouds.7 mph59%30.24 "Hg5 mi
11:30 PM
Sun, Feb 7
57 °FPassing clouds.9 mph59%30.27 "Hg5 mi
11:00 PM57 °FPassing clouds.7 mph63%30.27 "Hg5 mi
10:30 PM57 °FPassing clouds.7 mph63%30.27 "Hg4 mi
10:00 PM55 °FPassing clouds.7 mph72%30.27 "Hg4 mi
9:30 PM55 °FPassing clouds.9 mph72%30.27 "Hg4 mi
9:00 PM57 °FPassing clouds.7 mph63%30.27 "Hg5 mi
8:30 PM57 °FPassing clouds.6 mph67%30.24 "Hg5 mi
8:00 PM59 °FPassing clouds.7 mph63%30.24 "Hg4 mi
7:30 PM59 °FPassing clouds.7 mph63%30.24 "Hg4 mi
7:00 PM61 °FPassing clouds.12 mph59%30.21 "Hg4 mi
6:30 PM61 °FPassing clouds.12 mph59%30.21 "Hg4 mi
6:00 PM63 °FPassing clouds.12 mph56%30.18 "Hg4 mi
5:30 PM64 °FClear.10 mph52%30.18 "Hg4 mi
5:00 PM66 °FPassing clouds.8 mph52%30.15 "Hg4 mi
4:30 PM68 °FPassing clouds.9 mph49%30.15 "Hg4 mi
4:00 PM68 °FPassing clouds.10 mph49%30.15 "Hg4 mi
3:30 PM68 °FPassing clouds.14 mph49%30.15 "Hg5 mi
3:00 PM68 °FPassing clouds.14 mph49%30.15 "Hg5 mi
2:30 PM70 °FPassing clouds.2 mph50%30.12 "Hg5 mi
2:00 PM68 °FPassing clouds.3 mph46%30.15 "Hg5 mi
1:30 PM68 °FPassing clouds.6 mph46%30.15 "Hg4 mi
1:00 PM68 °FScattered clouds.5 mph46%30.18 "Hg4 mi
12:30 PM66 °FScattered clouds.5 mph49%30.21 "Hg4 mi
12:00 PM66 °FScattered clouds.6 mph49%30.21 "Hg4 mi
11:30 AM64 °FScattered clouds.7 mph52%30.24 "Hg3 mi
11:00 AM63 °FScattered clouds.9 mph56%30.24 "Hg3 mi
10:30 AM61 °FScattered clouds.9 mph55%30.24 "Hg3 mi
10:00 AM59 °FScattered clouds.6 mph55%30.24 "Hg3 mi
Weather by CustomWeather, © 2016

See weather overviewHow to use our weather pages